EW2984 Weather Reports


Display with metric or nautical units.
time (UTC)temp
F
wind
direction
speed
MPH
gust
MPH
rain 1hr
in
rain 24hr
in
rain mn
in
humidity
%
barometer
mb
20260503203043 62 212 0.0 2.0 0.00 0.00 0.00 35 1013.7
20260503201542 61 210 0.0 5.0 0.00 0.00 0.00 36 1013.9
20260503200046 60 218 0.0 5.0 0.00 0.00 0.00 36 1014.0
20260503194540 61 155 0.0 6.0 0.00 0.00 0.00 38 1014.3
20260503193039 60 192 1.0 3.0 0.00 0.00 0.00 37 1014.4
20260503191538 61 200 1.0 3.0 0.00 0.00 0.00 34 1014.5
20260503190044 61 233 0.0 4.0 0.00 0.00 0.00 40 1014.7
20260503184536 61 248 0.0 6.0 0.00 0.00 0.00 39 1014.9
20260503183030 58 210 1.0 7.0 0.00 0.00 0.00 40 1015.0
20260503181532 58 253 1.0 4.0 0.00 0.00 0.00 40 1015.0
20260503180029 57 257 0.0 6.0 0.00 0.00 0.00 41 1015.2
20260503174526 57 32 1.0 5.0 0.00 0.00 0.00 43 1015.1
20260503173022 55 37 0.0 3.0 0.00 0.00 0.00 42 1015.3
20260503171521 55 30 0.0 4.0 0.00 0.00 0.00 46 1015.4
20260503081506 42 353 0.0 1.0 0.00 0.00 0.00 68 1013.7
20260503071503 41 317 0.0 2.0 0.00 0.00 0.00 76 1013.4
20260503054556 41 206 0.0 0.0 0.00 0.02 0.00 78 1013.5
20260503053052 41 188 0.0 0.0 0.00 0.02 0.00 77 1013.6
20260503051550 42 188 0.0 0.0 0.00 0.02 0.00 76 1013.6
20260503050046 43 188 0.0 0.0 0.00 0.02 0.00 73 1013.7
20260503044544 44 188 0.0 1.0 0.00 0.03 0.00 71 1013.7
20260503043041 45 179 0.0 2.0 0.00 0.03 0.00 70 1013.4
20260503041540 45 356 0.0 1.0 0.00 0.03 0.00 71 1013.8
20260503040035 45 198 0.0 0.0 0.00 0.03 0.00 72 1014.0
20260503034535 45 200 0.0 0.0 0.00 0.04 0.03 72 1014.2
20260503033033 45 191 0.0 0.0 0.00 0.04 0.03 71 1014.2
20260503031539 45 171 0.0 0.0 0.00 0.04 0.03 70 1014.2
20260503030034 45 135 0.0 0.0 0.00 0.04 0.03 69 1014.3
20260503024532 46 100 0.0 1.0 0.00 0.05 0.03 67 1014.4
20260503023034 46 211 0.0 1.0 0.00 0.05 0.03 65 1014.3
20260503021533 47 234 0.0 3.0 0.00 0.05 0.03 65 1014.3
20260503020031 47 217 0.0 2.0 0.00 0.05 0.03 63 1014.5
20260503014532 48 215 0.0 1.0 0.00 0.05 0.03 63 1014.4
20260503013036 48 206 0.0 1.0 0.00 0.05 0.03 64 1014.4
20260503011531 48 174 0.0 1.0 0.00 0.05 0.03 63 1014.3
20260503010029 49 130 0.0 3.0 0.00 0.05 0.03 61 1014.0
20260503004528 49 293 0.0 2.0 0.00 0.05 0.03 60 1013.6
20260503003027 50 220 0.0 4.0 0.00 0.05 0.03 58 1013.4
20260503001527 50 221 0.0 2.0 0.00 0.05 0.03 56 1013.1
20260503000033 51 233 0.0 1.0 0.00 0.05 0.03 55 1013.1
20260502234527 52 139 0.0 1.0 0.00 0.05 0.03 55 1012.9
20260502233026 52 202 0.0 2.0 0.00 0.05 0.03 54 1012.7
20260502231525 52 211 0.0 1.0 0.00 0.05 0.03 52 1012.6
20260502230026 53 198 0.0 0.0 0.00 0.05 0.03 54 1012.5
20260502224524 53 16 0.0 2.0 0.00 0.05 0.03 53 1012.5
20260502223024 53 205 0.0 2.0 0.00 0.05 0.03 52 1012.6
20260502221527 54 174 0.0 1.0 0.00 0.05 0.03 53 1012.5
20260502220023 54 226 0.0 2.0 0.00 0.05 0.03 48 1012.7
20260502214522 55 331 0.0 1.0 0.00 0.05 0.03 49 1012.6
20260502213022 56 105 0.0 2.0 0.00 0.05 0.03 50 1012.4
20260502211521 55 27 0.0 2.0 0.00 0.05 0.03 47 1012.3
20260502210021 57 269 0.0 4.0 0.00 0.05 0.03 45 1012.1
20260502204524 57 172 0.0 3.0 0.00 0.05 0.03 48 1012.0